Regional Weather Roundup
Issued by NWS New Orleans/Baton Rouge, LA

Home | Current Version | Previous Version | Text Only | Print | Product List | Glossary Off
Versions: 1 2 3 4 5 6 7 8 9 10 11 12 13 14 15 16 17 18 19 20 21 22 23 24 25 26 27 28 29 30 31 32 33 34 35 36 37 38 39 40 41 42 43 44 45 46 47 48 49 50

226
ASUS44 KLIX 200801
RWRLIX
NEW ORLEANS REGIONAL WEATHER ROUNDUP
NATIONAL WEATHER SERVICE NEW ORLEANS LA
300 AM CDT SUN APR 20 2014

NOTE: "FAIR" INDICATES FEW OR NO CLOUDS BELOW 12,000 FEET WITH NO
      SIGNIFICANT WEATHER AND/OR OBSTRUCTIONS TO VISIBILITY.
      SKY/WX - SKY CONDITION AND SIGNIFICANT WEATHER.
      TMP - AIR TEMPERATURE.     DP    - DEWPOINT TEMPERATURE.
      RH  - RELATIVE HUMIDITY.   PRES  - PRESSURE.
      HI  - HEAT INDEX.          WCI   - WIND CHILL INDEX.

*  THESE STATIONS ARE NOT NWS OR FAA STATIONS AND ARE NOT UNDER
   NWS QUALITY CONTROL.

LAZ038-040-048-061>063-065>067-069-200900-
SOUTHEAST LOUISIANA

CITY           SKY/WX    TMP DP  RH WIND       PRES   REMARKS
N.O. AUDUBON     N/A     61  56  82 MISG        N/A
N.O. INTL ARPT CLEAR     61  57  87 W3        30.11S
N.O. LAKEFRONT CLEAR     65  59  81 N7        30.11S
N.O. DOWNTOWN*   N/A     66  54  63 CALM      30.11R
SLIDELL        CLEAR     54  51  90 CALM      30.10R
BATON ROUGE    CLEAR     57  52  83 CALM      30.13R
BOOTHVILLE     CLEAR     62  60  93 NW3       30.09F
BELLE CHASSE   CLEAR     56  53  90 CALM      30.10S
BOGALUSA*        N/A     53  50  89 CALM      30.12S
GALLIANO*      NOT AVBL
NEW ROADS*     NOT AVBL
GONZALES*      NOT AVBL
HAMMOND*       NOT AVBL
HOUMA*         FOG       58  56  93 CALM      30.12R VSB 3/4
PORT FOURCHON* SUNNY     66  63  88 W6        30.13R

$$

MSZ070-080>082-200900-
SOUTHERN MISSISSIPPI

CITY           SKY/WX    TMP DP  RH WIND       PRES   REMARKS
MCCOMB         CLEAR     55  50  83 CALM      30.13R
GULFPORT       CLEAR     61  52  72 NE3       30.10R
BILOXI         NOT AVBL
PASCAGOULA     CLEAR     56  53  90 E3        30.10F

$$

COASTAL OBSERVATIONS
LAKE AND NEARSHORE STATIONS

STATION/POSITION TIME  TEMP    WIND        PRES    WAVE
                       AIR SEA DIR/SP/G            HT/PER
                 (UTC) (F)     (DEG/KT/KT) (MB)    (FT/S)
PASCAGOULA       0700   65      70/  8/ 10 1018.5
WAVELAND YACHT   0700   64 69   20/  4/  5 1018.2
GRAND ISLE       0700   67 68  280/  8/ 10 1019.5
SOUTHWEST PASS   0700   65 58  310/ 10/ 12 1019.2
NEW CANAL        0700   68 67   20/  2/  2 1019.6
SHELL BEACH      0700   67 66  350/  6/  7 1018.8

OFFSHORE STATIONS

STATION/POSITION TIME  TEMP    WIND        PRES    WAVE
                       AIR SEA DIR/SP/G            HT/PER
                 (UTC) (F)     (DEG/KT/KT) (MB)    (FT/S)
64 S DAUPHIN ISL 0732   68 70   60/ 16/ 19 1019.4

$$




USA.gov is the U.S. government's official web portal to all federal, state and local government web resources and services.